Theta_e
315 315 314 314 313 313 313 313 313 313 312 312 313 310 301 298 297 296 293 292 292 294 297 298 300 302 303 305 306 307 308 309 310 311 312 312 312 312 312 311 311 310 310 310
313 314 313 313 313 313 313 313 313 310 310 311 312 313 303 298 297 296 294 292 291 291 295 297 298 300 302 303 304 304 306 306 307 309 310 311 311 310 310 310 310 310 309 309
313 313 313 313 313 313 313 313 312 313 308 308 308 310 305 301 299 297 296 294 292 294 294 294 296 297 299 300 301 301 302 302 301 305 307 308 309 309 308 309 308 308 308 308
312 313 313 313 314 313 313 312 313 309 309 311 307 311 310 305 300 299 297 295 293 292 291 291 290 293 296 297 299 299 300 300 302 303 304 306 307 306 306 306 306 306 306 306
312 311 312 313 313 313 313 312 312 310 310 312 309 311 310 306 302 300 298 296 294 292 290 288 288 289 292 295 297 298 299 300 301 301 302 303 303 303 303 303 303 303 303 302
311 312 310 311 312 313 313 312 313 311 311 313 312 311 310 307 306 303 300 298 295 292 289 287 285 287 290 293 295 297 298 298 299 299 299 300 300 301 301 301 300 299 299 299
312 310 310 310 312 313 312 312 313 315 315 314 311 311 311 308 306 305 302 299 296 291 287 284 284 285 288 290 292 294 295 296 296 296 297 298 298 297 296 297 297 295 294 294
314 314 311 310 311 312 312 312 313 314 314 312 311 312 311 297 296 300 303 299 293 288 285 284 283 283 284 287 289 290 291 292 292 293 294 294 294 293 294 293 292 291 290 290
314 314 311 311 311 312 312 313 312 312 311 313 312 308 298 295 295 299 299 294 289 286 283 283 281 281 283 285 286 287 288 288 289 289 290 290 290 289 288 288 287 287 287 286
313 316 313 311 311 311 312 311 313 312 315 314 312 311 312 297 295 297 294 290 286 284 282 281 279 279 280 282 283 284 285 286 286 286 286 286 286 285 285 285 285 285 285 285
310 313 314 311 311 312 312 312 312 312 312 312 313 312 297 299 296 295 292 288 285 283 281 280 279 278 279 280 281 282 282 283 283 283 283 283 283 283 284 284 284 284 284 284
309 309 314 312 310 307 311 312 312 313 313 312 312 311 295 295 296 294 291 287 284 282 280 279 278 278 278 278 279 280 281 281 281 282 282 282 282 282 283 283 283 283 283 282
305 309 313 314 310 308 308 310 311 312 313 314 315 312 293 294 294 292 289 286 283 281 279 278 277 277 276 277 278 280 280 280 281 281 281 281 282 282 282 282 282 281 281 281
302 307 309 311 309 308 310 309 310 312 315 313 313 305 291 294 292 290 287 284 282 280 278 277 276 275 276 278 279 279 279 279 280 280 281 281 281 281 281 280 280 280 280 280
303 305 306 307 307 308 308 308 309 311 311 314 311 313 297 294 291 289 285 282 280 278 277 276 275 276 277 277 278 278 278 279 279 280 280 280 280 280 279 279 279 279 279 279
301 304 304 304 305 306 306 306 308 309 310 311 306 304 293 292 289 286 283 281 279 277 276 275 275 276 276 277 277 277 278 278 279 279 279 279 279 279 278 278 278 278 278 278
297 300 301 302 302 303 303 299 304 307 309 309 312 306 289 288 287 284 282 280 278 277 276 276 276 276 276 276 277 277 278 278 278 278 279 278 278 278 278 278 278 278 278 277
292 297 297 299 300 303 298 289 290 295 295 296 295 291 290 288 285 283 281 278 277 276 276 276 275 275 276 276 277 277 280 282 280 278 277 277 277 277 277 277 277 277 277 277
296 294 294 296 298 300 294 287 290 296 295 290 289 287 283 281 281 280 279 278 277 277 276 275 276 277 278 280 281 279 277 277 277 277 277 277 277 277 276 276 276 276 275 275
297 296 298 293 296 298 287 284 282 283 298 285 285 282 281 282 282 279 277 277 277 277 277 276 277 279 280 280 279 277 277 276 276 276 276 276 276 276 275 276 276 276 275 275
294 296 297 297 299 292 277 278 281 298 290 283 282 281 282 283 281 277 277 276 277 278 276 278 279 279 279 278 276 275 275 275 275 275 275 275 276 276 275 275 274 274 273 273
294 294 295 294 298 297 274 278 285 279 281 282 281 279 276 276 276 276 276 276 277 277 277 278 279 278 275 274 274 275 275 275 275 276 276 275 275 274 273 272 272 272 272 271
290 285 285 282 279 273 273 273 274 276 278 277 278 277 276 274 274 275 276 276 277 277 277 277 276 274 274 274 274 275 275 275 275 274 274 273 272 271 271 271 270 270 270 269
281 279 283 280 275 272 273 274 275 277 277 276 276 275 275 274 275 275 276 276 276 277 275 273 273 274 274 274 275 275 274 273 273 272 271 271 271 270 270 270 270 269 269 269
280 278 279 275 273 272 272 273 274 275 275 275 274 275 275 276 275 276 276 275 274 272 272 273 274 275 275 274 273 273 272 271 271 270 270 270 270 270 270 269 269 268 268 269
276 276 280 280 274 274 272 272 273 274 274 274 274 274 275 277 276 275 273 272 273 273 274 274 274 273 272 272 271 271 270 270 270 270 270 269 269 268 268 268 268 268 268 269
Wind_Speed
14 9 14 14 14 12 12 13 14 7 11 9 11 8 13 18 16 17 17 16 16 16 14 12 12 12 12 12 12 12 11 12 11 12 12 12 12 11 10 8 6 7 5 4
9 17 12 14 15 17 16 13 2 9 7 7 9 11 14 21 21 23 22 20 19 18 17 15 14 14 13 13 12 12 13 13 14 14 15 14 14 14 12 10 10 8 7 5
11 11 18 15 14 15 15 12 6 5 7 3 3 6 12 15 17 22 22 22 22 24 21 18 16 16 15 13 12 11 11 12 14 16 16 15 16 14 12 10 9 8 6 6
15 15 19 18 15 13 14 9 10 15 7 4 9 4 12 14 15 17 23 24 27 27 22 19 18 16 15 13 10 10 10 10 13 16 16 16 17 15 13 11 10 7 6 5
8 8 11 15 18 12 12 3 10 10 6 3 7 4 6 16 11 17 28 34 31 30 27 23 19 18 15 12 10 10 11 12 13 14 15 15 15 14 13 12 10 8 7 5
13 9 5 14 10 10 5 3 5 6 3 6 8 8 6 9 14 20 22 28 30 30 28 24 22 17 16 14 13 13 12 13 13 14 14 14 14 14 13 12 11 9 7 5
11 14 5 8 8 9 7 9 3 4 5 6 9 10 11 10 7 11 24 30 32 34 29 27 22 18 17 17 16 15 14 14 14 14 15 15 14 14 13 12 10 8 6 5
11 10 19 11 13 14 15 15 6 8 8 6 12 8 7 3 5 8 30 37 38 35 30 25 21 20 18 18 18 16 15 16 16 15 15 15 14 13 12 10 9 8 7 6
6 12 7 17 13 17 11 19 15 9 12 3 5 1 1 4 3 2 31 38 35 35 31 26 24 22 20 19 19 18 18 17 17 16 15 14 14 12 11 10 9 8 8 6
3 4 6 14 15 17 13 8 9 9 7 14 6 7 7 7 10 12 20 30 32 34 30 28 24 22 22 21 20 20 19 18 17 16 15 14 13 12 11 10 9 7 6 4
7 5 2 2 14 20 13 12 10 7 12 7 7 6 2 2 15 20 21 30 33 33 33 28 25 23 22 21 20 20 19 19 18 17 16 15 14 12 10 8 7 5 3 1
1 4 9 15 4 5 15 21 19 9 13 15 9 8 1 4 14 23 26 30 32 33 32 29 26 24 23 22 22 21 20 19 18 17 15 14 12 10 8 6 4 2 1 1
3 3 3 4 1 3 5 9 17 21 3 15 11 8 1 6 12 24 30 31 32 33 31 29 26 25 24 23 23 21 20 18 17 15 14 12 10 7 5 3 2 0 1 1
0 3 7 8 4 1 5 11 18 19 7 18 19 2 3 11 16 21 29 34 34 35 33 31 27 26 26 24 21 20 19 17 15 13 11 9 7 5 3 2 1 0 1 3
2 4 3 10 11 8 8 10 14 21 21 11 10 16 12 18 19 25 31 33 35 35 34 32 32 30 26 24 22 20 18 16 14 11 9 6 4 3 3 2 0 1 3 5
2 4 3 5 7 5 6 10 12 10 18 19 2 1 4 19 25 27 31 34 33 34 32 30 29 27 26 24 22 19 17 14 11 9 7 5 4 3 2 1 2 4 6 7
3 3 3 7 2 3 6 8 12 6 5 8 17 9 10 14 16 28 32 32 32 32 34 32 28 26 24 22 20 17 15 12 9 6 4 3 3 2 2 3 5 7 9 10
4 5 3 4 1 7 4 2 2 1 3 5 4 12 14 19 24 27 30 35 33 33 34 32 31 28 25 22 19 15 12 8 6 6 5 4 3 2 4 6 8 10 12 14
14 4 4 3 5 7 1 3 1 3 1 3 7 11 23 33 33 18 27 33 36 35 32 31 29 28 27 22 17 13 10 9 7 6 4 2 2 4 7 9 11 13 15 17
7 11 7 2 4 6 1 2 7 3 3 5 9 15 20 23 6 6 33 34 34 36 36 35 31 26 22 19 15 11 10 9 6 4 2 3 5 7 9 11 13 15 17 18
3 5 14 13 8 3 3 7 8 3 2 3 13 19 19 0 5 37 37 35 37 37 35 30 26 22 19 15 14 12 9 7 4 2 2 5 7 9 11 13 14 16 17 18
3 3 4 6 6 10 8 5 1 3 7 10 15 18 25 33 39 42 39 39 38 35 31 26 24 20 17 15 12 10 7 4 2 2 5 7 9 10 12 13 14 15 16 17
3 1 1 1 2 2 6 2 1 3 6 11 21 22 33 37 39 39 40 39 36 32 28 24 20 19 16 13 10 8 4 2 3 4 6 7 9 10 11 12 13 14 15 15
2 1 1 2 2 2 6 6 6 6 10 17 23 31 37 41 40 41 40 36 32 28 25 22 20 17 15 11 7 4 1 1 3 4 5 7 7 8 10 10 11 12 13 15
1 1 3 1 2 4 5 6 15 20 24 28 31 36 40 44 41 41 37 33 30 27 24 20 17 14 11 7 5 2 1 1 3 3 5 6 7 8 9 10 12 12 15 15
1 1 2 3 1 4 6 14 21 27 29 32 37 36 37 40 39 36 33 30 28 25 21 17 14 11 9 6 4 4 4 4 4 5 6 7 8 10 11 13 14 11 10 11
Wind_Direction
190 204 200 196 211 235 221 199 224 73 171 168 199 174 183 182 195 193 192 192 192 200 194 188 184 183 187 187 191 192 202 204 201 203 200 203 209 196 202 206 224 218 240 240
178 217 203 225 211 226 252 265 260 84 149 199 202 224 174 180 203 199 191 193 197 197 196 194 192 196 201 205 207 211 220 224 222 216 209 205 208 196 193 185 192 208 224 227
203 208 227 216 229 219 236 249 235 151 144 273 307 260 161 194 188 202 203 202 201 207 198 196 195 201 205 211 215 221 229 235 233 214 205 203 204 199 190 185 192 192 200 202
236 223 204 234 229 225 230 233 260 137 138 214 167 261 208 179 187 194 197 197 197 206 204 200 198 201 206 211 215 221 226 219 209 203 200 197 198 193 185 178 175 178 173 185
218 222 242 217 228 220 235 6 238 154 198 299 185 290 250 148 196 205 201 199 192 199 198 195 196 204 200 200 199 197 194 196 195 192 190 190 191 185 176 168 169 164 160 161
253 221 233 228 235 217 214 78 33 127 173 245 213 200 223 180 209 210 196 193 186 178 181 188 195 195 190 185 182 181 183 181 179 179 180 181 178 174 172 167 167 163 162 160
238 238 238 256 214 203 189 145 164 219 205 237 205 211 222 191 190 185 190 183 174 174 176 183 186 183 179 174 171 172 169 165 167 170 169 169 168 166 164 163 164 159 156 154
214 230 214 198 216 204 198 183 189 207 220 233 204 233 226 48 34 152 181 168 163 167 176 184 180 173 172 169 167 166 163 162 161 162 162 162 162 164 165 163 160 157 152 146
222 227 189 187 191 202 187 214 212 277 283 276 248 173 92 106 41 102 140 148 151 157 171 174 174 177 173 169 167 168 165 162 160 160 162 161 161 159 157 154 150 148 143 137
287 274 256 190 191 228 194 160 205 226 237 247 226 236 217 203 177 142 143 147 148 152 160 164 172 171 169 169 170 170 168 167 162 160 158 157 154 151 148 146 144 141 136 130
179 231 279 115 204 202 202 193 211 202 221 224 248 242 253 315 178 158 150 148 148 150 155 161 168 172 172 169 166 164 163 163 159 157 154 152 150 149 149 148 146 144 142 141
92 254 219 208 346 301 241 215 213 217 204 225 252 250 251 333 144 147 145 147 148 153 159 165 172 172 168 165 164 164 162 161 158 157 155 154 151 150 151 152 153 155 185 295
354 261 284 185 190 294 231 216 228 237 263 221 207 240 162 106 126 146 144 146 149 152 159 165 172 168 165 166 167 165 161 161 160 158 155 154 154 156 158 161 173 202 334 347
206 265 232 268 311 258 257 233 220 218 224 228 236 204 242 155 145 147 147 149 150 154 158 166 164 166 171 169 165 162 161 160 159 157 156 156 157 160 165 168 161 33 357 345
263 271 264 261 272 218 227 245 256 229 225 211 215 222 186 179 161 155 149 147 147 153 163 169 171 173 169 163 161 160 159 157 156 155 156 159 161 158 151 145 143 322 323 324
206 280 291 271 252 223 247 234 237 252 241 243 258 49 279 135 141 146 151 152 150 150 157 170 174 169 164 161 159 158 157 155 153 153 153 153 153 162 173 264 312 316 317 318
193 271 304 271 154 284 267 228 218 221 191 231 225 204 143 137 151 155 153 153 151 151 163 171 168 163 158 157 156 153 150 147 145 147 152 165 178 203 265 299 308 311 312 313
230 212 237 273 161 242 232 98 155 265 54 16 40 141 151 146 140 146 154 150 149 155 166 163 159 155 153 150 146 146 149 152 164 178 182 186 210 267 294 303 305 306 307 310
205 202 264 224 217 288 272 18 50 155 106 15 111 105 111 113 107 111 151 159 157 164 160 153 151 153 155 156 150 143 158 166 173 177 184 208 264 293 299 303 308 311 311 312
172 205 234 227 221 226 24 40 358 298 250 353 128 137 140 141 148 154 152 161 160 157 155 156 158 158 155 148 144 155 166 168 171 179 212 267 288 300 306 308 310 310 309 310
176 219 223 233 245 284 326 322 329 180 221 60 141 149 154 21 119 140 150 154 159 155 153 155 153 152 146 142 158 161 161 166 173 210 285 303 306 307 307 308 310 310 309 309
219 235 194 220 239 253 358 322 172 353 40 134 137 139 114 116 123 138 152 154 151 149 152 152 149 140 144 151 154 157 164 163 195 283 298 302 305 309 308 309 310 312 313 313
270 162 256 349 290 18 343 323 325 5 124 118 139 137 138 129 132 143 146 148 149 148 147 142 140 148 146 148 153 156 152 199 273 294 306 311 312 313 312 315 318 317 316 316
91 175 318 152 86 17 17 53 73 119 134 138 141 136 136 130 136 138 143 142 142 141 137 142 144 143 141 141 148 155 178 289 312 317 318 322 329 326 329 331 332 330 333 337
154 352 139 21 103 113 63 106 109 118 125 124 127 134 134 138 136 139 137 135 135 138 139 140 142 138 135 138 138 133 86 1 351 356 355 352 345 342 343 346 345 343 344 345
19 157 183 238 277 76 117 132 129 124 124 131 133 128 134 138 134 135 134 136 137 137 138 141 138 135 134 132 117 90 68 50 37 20 8 359 358 356 345 338 339 339 327 324